OPS 4682 DEB, 38392

Orbit data source: Space-Track

OPS 4682 DEB, 38392 is space debris in LEO originally from a launch on Sat, 03 Apr 1965 UTC launched from the Air Force Western Test Range (AFWTR). Debris objects in space refer to the collection of defunct objects orbiting the Earth. Examples of debris include non-operational satellites, rocket bodies, and fragments generated from explosions, collisions, or faulty payload assembly.

Loading next visibility...
Identifier
38392, 1965-027CV
Orbit
LEO
Country
Flag of USUS
Related business
Manufacturer
Unknown
Mission
Spacecraft
Bus & Motor
Unknown
Mass
Unknown
Launch date (UTC)
1965-04-03 (61 years ago)
Launch vehicle
Unknown
Launch site
Air Force Western Test Range (AFWTR)
Object type
Payload
Rocket body
Debris
Shape & HBR
Unknown shape, 0.1 m
Radar Cross Section
Small (<0.1 m²)

Expand to show TLE details & history
Last TLE update: 2 days ago

TLE from 2 days ago
0 OPS 4682 DEB
1 38392U 65027CV  26034.66889353  .00000242  00000-0  83383-3 0  9994
2 38392  90.2485  10.3446 0029813 156.5176 203.7312 12.95261252593850
Epoch: 2026-02-03T16:03Z
TLE epoch observation values (Epoch: 2026-02-03T16:03:12.400Z)
Latitude
-0.00006°
Longitude
-4.30358°
Altitude
1,304.504 km
Speed
7.195 km/s
True Right ascension
00h 41m 22s
True Declination
0° 00' 00"
Sunlit
Object was in daylight at epoch
Visualization orbit readout
Latitude
Unknown
Longitude
Unknown
Altitude
Unknown
Speed
Unknown
Apparent Right ascension
Unknown
Apparent Declination
Unknown
Sunlit
N/A
Visualization observer readout
Local Sidereal Time
08:45:53
Azimuth
Unknown
Elevation
Unknown
Doppler factor
Unknown
Orbital elements
Apogee altitude
1,300.669 km
Perigee altitude
1,255.019 km
Semi-major axis
7,655.981 km
Eccentricity
0.00298
Inclination
90.2485°
RAAN
10.3446°
Arg. of periapsis
156.5176°
True anomaly
203.59418°
Mean anomaly
203.7312°
Eccentric anomaly
203.66264°
Mean motion
3.23998 °/min
Orbital period
111.11 mins
BSTAR
0.00083383
Loading maneuver chart data...
Computing Atmospheric mass density...
Loading historical data...
Loading historical data...
Loading historical data...
Loading historical data...
Loading historical data...
Loading historical data...
Loading historical data...

Documentation

Showing up to 5 results
|